Date String (YYYY-MM-DD hh:mm:ss) UTC,Instrument flags,Ambient pressure (hPa),Sample flow (lpm),Bypass flow (lpm),Sample temperature (°C),Ambient temperature (°C),ASC tube jacket temperature (°C),LED temperature (°C),Box temperature (°C),Sample RH (%),Span deviation,Mass concentration (μg/m³),Mass concentration (μg/m³),Mass concentration (μg/m³)
DateTimeUTC,F1_M11,P_M11,Q1_M11,Q2_M11,T1_M11,T2_M11,T3_M11,T4_M11,T5_M11,U1_M11,ZSPAN_M11,X0_M11,X2_M11,X1_M11
2022-12-05 08:00:00,,0816.4,4.99,0.00,23.8,22.5,00.0,32.8,25.7,15.3,0000.0,0004.06,0003.23,0003.09
2022-12-05 08:01:00,,0816.4,5.00,0.00,23.9,22.6,00.0,32.8,25.7,15.2,0000.0,0004.15,0003.25,0003.11
2022-12-05 08:02:00,,0816.5,5.01,0.00,23.9,22.6,00.0,32.8,25.7,14.7,0000.0,0004.18,0003.25,0003.10
2022-12-05 08:03:00,,0816.4,5.01,0.00,23.9,22.6,00.0,32.8,25.8,14.4,0000.0,0004.16,0003.25,0003.10
2022-12-05 08:04:00,,0816.5,4.99,0.00,23.9,22.6,00.0,32.8,25.7,14.1,0000.0,0004.11,0003.23,0003.08
2022-12-05 08:05:00,,0816.5,4.99,0.00,23.9,22.6,00.0,32.8,25.7,14.1,0000.0,0004.13,0003.23,0003.06
2022-12-05 08:06:00,,0816.7,5.00,0.00,23.9,22.6,00.0,32.8,25.7,14.1,0000.0,0004.02,0003.22,0003.05
2022-12-05 08:07:00,,0816.4,5.00,0.00,23.9,22.6,00.0,32.8,25.8,14.2,0000.0,0004.06,0003.21,0003.05
2022-12-05 08:08:00,,0816.4,5.01,0.00,23.9,22.7,00.0,32.8,25.9,14.5,0000.0,0004.09,0003.21,0003.04
2022-12-05 08:09:00,,0816.4,5.01,0.00,23.9,22.7,00.0,32.8,25.9,15.1,0000.0,0004.06,0003.22,0003.06
2022-12-05 08:10:00,,0816.5,5.00,0.00,23.9,22.7,00.0,32.8,25.9,15.2,0000.0,0004.16,0003.25,0003.11
2022-12-05 08:11:00,,0816.5,4.99,0.00,23.9,22.7,00.0,32.8,25.9,15.1,0000.0,0004.41,0003.26,0003.12
2022-12-05 08:12:00,,0816.5,5.00,0.00,23.9,22.7,00.0,32.8,25.9,14.9,0000.0,0004.24,0003.24,0003.12
2022-12-05 08:13:00,,0816.5,5.02,0.00,23.9,22.7,00.0,32.8,25.9,15.0,0000.0,0004.13,0003.23,0003.13
2022-12-05 08:14:00,,0816.7,5.01,0.00,23.9,22.7,00.0,32.8,25.9,14.7,0000.0,0004.22,0003.27,0003.16
2022-12-05 08:15:00,,0816.6,5.00,0.00,24.0,22.7,00.0,32.8,25.9,14.2,0000.0,0004.28,0003.28,0003.17
2022-12-05 08:16:00,,0816.6,5.00,0.00,24.0,22.8,00.0,32.9,25.9,14.0,0000.0,0004.26,0003.29,0003.18
2022-12-05 08:17:00,,0816.8,4.99,0.00,24.0,22.7,00.0,32.9,25.9,14.2,0000.0,0004.32,0003.31,0003.19
2022-12-05 08:18:00,,0816.9,5.01,0.00,23.9,22.6,00.0,32.9,25.8,13.9,0000.0,0004.31,0003.31,0003.19
2022-12-05 08:19:00,,0816.6,5.01,0.00,23.9,22.5,00.0,32.9,25.7,13.9,0000.0,0004.22,0003.30,0003.18
2022-12-05 08:20:00,,0816.8,5.00,0.00,23.9,22.5,00.0,32.9,25.8,13.9,0000.0,0004.10,0003.25,0003.15
2022-12-05 08:21:00,,0816.6,4.99,0.00,23.9,22.5,00.0,32.9,25.8,13.9,0000.0,0003.95,0003.19,0003.10
2022-12-05 08:22:00,,0816.6,4.99,0.00,23.9,22.5,00.0,32.9,25.8,13.9,0000.0,0003.68,0003.14,0003.02
2022-12-05 08:23:00,,0816.6,5.00,0.00,23.9,22.5,00.0,32.8,25.8,14.0,0000.0,0003.73,0003.11,0002.95
2022-12-05 08:24:00,,0816.5,5.01,0.00,23.9,22.5,00.0,32.8,25.7,14.2,0000.0,0003.70,0003.06,0002.88
2022-12-05 08:25:00,,0816.4,5.01,0.00,23.9,22.5,00.0,32.8,25.7,14.1,0000.0,0003.69,0003.00,0002.82
2022-12-05 08:26:00,,0816.4,5.00,0.00,23.9,22.5,00.0,32.8,25.7,14.1,0000.0,0003.65,0002.95,0002.78
2022-12-05 08:27:00,,0816.3,5.00,0.00,23.9,22.5,00.0,32.8,25.7,13.9,0000.0,0003.67,0002.93,0002.75
2022-12-05 08:28:00,,0816.5,5.00,0.00,23.9,22.5,00.0,32.8,25.7,13.8,0000.0,0003.64,0002.90,0002.73
2022-12-05 08:29:00,,0816.6,5.00,0.00,23.9,22.4,00.0,32.8,25.6,13.8,0000.0,0003.57,0002.88,0002.72
2022-12-05 08:30:00,,0816.5,5.00,0.00,23.9,22.4,00.0,32.8,25.6,13.9,0000.0,0003.63,0002.91,0002.73
2022-12-05 08:31:00,,0816.6,4.99,0.00,23.8,22.4,00.0,32.8,25.6,13.9,0000.0,0003.66,0002.93,0002.74
2022-12-05 08:32:00,,0816.8,5.00,0.00,23.8,22.3,00.0,32.8,25.6,13.9,0000.0,0003.66,0002.93,0002.75
2022-12-05 08:33:00,,0816.6,5.01,0.00,23.8,22.3,00.0,32.8,25.6,13.9,0000.0,0003.58,0002.94,0002.75
2022-12-05 08:34:00,,0816.5,5.01,0.00,23.8,22.3,00.0,32.8,25.6,14.0,0000.0,0003.48,0002.92,0002.75
2022-12-05 08:35:00,,0816.4,5.00,0.00,23.8,22.3,00.0,32.8,25.6,14.0,0000.0,0003.47,0002.90,0002.74
2022-12-05 08:36:00,,0816.5,5.00,0.00,23.8,22.3,00.0,32.8,25.6,13.7,0000.0,0003.32,0002.86,0002.72
2022-12-05 08:37:00,,0816.5,4.99,0.00,23.8,22.3,00.0,32.8,25.6,13.8,0000.0,0003.29,0002.86,0002.70
2022-12-05 08:38:00,,0816.6,5.00,0.00,23.8,22.3,00.0,32.8,25.6,13.8,0000.0,0003.32,0002.86,0002.70
2022-12-05 08:39:00,,0816.9,5.00,0.00,23.8,22.3,00.0,32.8,25.6,14.0,0000.0,0003.27,0002.83,0002.67
2022-12-05 08:40:00,,0817.1,5.00,0.00,23.8,22.3,00.0,32.8,25.6,13.9,0000.0,0003.26,0002.82,0002.64
2022-12-05 08:41:00,,0816.5,5.00,0.00,23.8,22.3,00.0,32.7,25.6,13.9,0000.0,0003.18,0002.76,0002.60
2022-12-05 08:42:00,,0816.4,5.00,0.00,23.8,22.3,00.0,32.7,25.6,13.8,0000.0,0003.13,0002.71,0002.55
2022-12-05 08:43:00,,0817.0,5.00,0.00,23.7,22.3,00.0,32.7,25.5,14.0,0000.0,0003.08,0002.66,0002.50
2022-12-05 08:44:00,,0816.6,5.00,0.00,23.7,22.3,00.0,32.7,25.5,13.8,0000.0,0003.04,0002.63,0002.48
2022-12-05 08:45:00,,0816.7,5.00,0.00,23.7,22.3,00.0,32.7,25.6,13.8,0000.0,0003.02,0002.61,0002.46
2022-12-05 08:46:00,,0816.7,5.00,0.00,23.7,22.4,00.0,32.7,25.6,13.8,0000.0,0003.00,0002.60,0002.44
2022-12-05 08:47:00,,0816.7,5.00,0.00,23.7,22.3,00.0,32.7,25.6,13.8,0000.0,0002.99,0002.59,0002.42
2022-12-05 08:48:00,,0816.6,5.00,0.00,23.7,22.3,00.0,32.7,25.6,13.7,0000.0,0002.92,0002.54,0002.39
2022-12-05 08:49:00,,0816.7,5.00,0.00,23.7,22.3,00.0,32.7,25.5,13.7,0000.0,0002.80,0002.47,0002.35
2022-12-05 08:50:00,,0816.8,4.99,0.00,23.7,22.3,00.0,32.7,25.5,13.7,0000.0,0002.74,0002.41,0002.30
2022-12-05 08:51:00,,0816.9,5.00,0.00,23.7,22.2,00.0,32.7,25.5,13.6,0000.0,0002.69,0002.37,0002.27
2022-12-05 08:52:00,,0817.3,5.00,0.00,23.7,22.2,00.0,32.7,25.5,13.9,0000.0,0002.75,0002.39,0002.27
2022-12-05 08:53:00,,0816.8,5.02,0.00,23.7,22.1,00.0,32.7,25.5,14.2,0000.0,0002.95,0002.53,0002.36
2022-12-05 08:54:00,,0816.7,5.00,0.00,23.7,22.1,00.0,32.7,25.5,14.2,0000.0,0003.10,0002.63,0002.45
2022-12-05 08:55:00,,0816.5,4.99,0.00,23.6,22.1,00.0,32.6,25.5,14.0,0000.0,0003.22,0002.72,0002.53
2022-12-05 08:56:00,,0816.5,4.99,0.00,23.6,22.1,00.0,32.6,25.5,13.7,0000.0,0003.31,0002.74,0002.54
2022-12-05 08:57:00,,0816.6,5.00,0.00,23.6,22.2,00.0,32.6,25.5,13.7,0000.0,0003.26,0002.69,0002.51
2022-12-05 08:58:00,,0816.5,5.02,0.00,23.6,22.2,00.0,32.6,25.5,13.8,0000.0,0003.25,0002.67,0002.49
2022-12-05 08:59:00,,0816.5,4.98,0.00,23.6,22.2,00.0,32.6,25.5,13.6,0000.0,0003.22,0002.65,0002.47
